Birmingham International Airport (BHM)

 

Airport Diagram
Current Weather/Forecast (VFR Conditions)
METAR KBHM 251253Z 28005KT 10SM FEW035 02/M01 A3015 RMK AO2 SLP212 T00221006
TAF KBHM 251135Z 2512/2612 VRB04KT P6SM OVC035 TEMPO 2513/2516 OVC022 FM251600 30006KT P6SM BKN060 FM251900 29007KT P6SM SCT120 FM260200 00000KT P6SM SCT250

All Charts
General
Chart Name Download
AIRPORT DIAGRAM
TAKEOFF MINIMUMS
ALTERNATE MINIMUMS
LAHSO

Departures
Chart Name Download
BIRMINGHAM SEVEN
BIRMINGHAM SEVEN, CONT.1

Approaches
Chart Name Download
ILS OR LOC RWY 06
ILS OR LOC RWY 24
ILS RWY 06 (CAT II)
ILS RWY 24 (SA CAT II)
RNAV (RNP) Z RWY 06
RNAV (RNP) Z RWY 24
RNAV (GPS) RWY 18
RNAV (GPS) RWY 36
RNAV (GPS) Y RWY 06
RNAV (GPS) Y RWY 24
LOC RWY 18


Inbound Traffic (Arrivals)

No inbound traffic.


Outbound Traffic (Departures)

No outbound traffic.